Saint Martin Island, Sint Maarten

11:42 AM AST on January 22, 2017 (GMT -0400)
Princess Juliana International

Weather History for TNCM - February, 2014

Change the Weather History Date:

Saturday, February 8, 2014

  Actual Average Record
Temperature  
Mean Temperature 78 °F -  
Max Temperature 83 °F 81 °F 86 °F (1998)
Min Temperature 74 °F 72 °F 71 °F (1999)
Cooling Degree Days 14    
Growing Degree Days 28 (Base 50)    
Moisture  
Dew Point 70 °F    
Average Humidity 73    
Maximum Humidity 89    
Minimum Humidity 56    
Precipitation  
Precipitation 0.12 in 0.06 in - ()
Sea Level Pressure  
Sea Level Pressure 30.04 in    
Wind  
Wind Speed 11 mph ()    
Max Wind Speed 16 mph    
Max Gust Speed 29 mph    
Visibility 7.5 miles    
Events Rain    
Averages and records for this station are not official NWS values.
T = Trace of Precipitation, MM = Missing Value Source: Averaged Metar Reports

Daily Weather History Graph

Daily Weather History Graph

Search for Another Location

Airport or City:

Trip Planner

Search our weather history database for the weather conditions in past years. The results will help you decide how hot, cold, wet, or windy it might be!

Date:

Astronomy

Feb. 08, 2014 Rise Set
Actual Time 6:42 AM AST 6:10 PM AST
Civil Twilight 6:20 AM AST 6:33 PM AST
Nautical Twilight 5:54 AM AST 6:58 PM AST
Astronomical Twilight 5:28 AM AST 7:24 PM AST
Moon 1:13 PM AST (2/8) 1:40 AM AST (2/8)
Length of Visible Light 12h 12m
Length of Day
11h 27m
Waxing Gibbous, 68% of the Moon is Illuminated
Feb 8
Waxing Gibbous
Feb 14
Full
Feb 22
Last Quarter
Mar 1
New
Mar 8
First Quarter

Hourly Weather History & Observations

Time (AST) Temp. Heat Index Dew Point Humidity Pressure Visibility Wind Dir Wind Speed Gust Speed Precip Events Conditions
12:00 AM 77.0 °F - 71.6 °F 83% 30.06 in 3.1 mi East 10.4 mph - N/A Rain Rain Showers
1:00 AM 77.0 °F - 71.6 °F 83% 30.06 in 6.2 mi East 9.2 mph - N/A   Mostly Cloudy
2:00 AM 77 °F - 71 °F 77% 30.05 in 3 mi East 9.2 mph - - Rain Light Rain Showers
2:00 AM 75.2 °F - 69.8 °F 83% 30.04 in 3.1 mi East 9.2 mph - N/A Rain Rain Showers
3:00 AM 75.2 °F - 71.6 °F 89% 30.04 in 3.1 mi East 8.1 mph - N/A Rain Rain Showers
4:00 AM 77.0 °F - 71.6 °F 83% 30.01 in 3.1 mi East 12.7 mph - N/A Rain Rain Showers
5:00 AM 76 °F - 69 °F 74% 30.03 in 19 mi East 11.5 mph - - Rain Light Rain Showers
5:00 AM 77.0 °F - 69.8 °F 78% 30.01 in 6.2 mi East 11.5 mph - N/A   Scattered Clouds
6:00 AM 75.2 °F - 69.8 °F 83% 30.04 in 3.7 mi East 11.5 mph - N/A Rain Light Rain
7:00 AM 77.0 °F - 69.8 °F 78% 30.04 in 6.2 mi East 13.8 mph - N/A   Partly Cloudy
8:00 AM 78 °F - 68 °F 65% 30.08 in 19 mi East 15.0 mph - - Rain Light Rain Showers
8:00 AM 77.0 °F - 68.0 °F 74% 30.06 in 6.2 mi East 16.1 mph - N/A   Partly Cloudy
9:00 AM 78.8 °F - 69.8 °F 74% 30.09 in 6.2 mi East 13.8 mph - N/A   Scattered Clouds
10:00 AM 80.6 °F 83.9 °F 69.8 °F 70% 30.09 in 6.2 mi East 13.8 mph 26.5 mph N/A   Scattered Clouds
11:00 AM 81 °F - 69 °F 59% 30.10 in 19 mi East 16.1 mph - -   Partly Cloudy
11:00 AM 80.6 °F 83.9 °F 69.8 °F 70% 30.09 in 6.2 mi East 16.1 mph 28.8 mph N/A   Scattered Clouds
12:00 PM 82.4 °F 86.3 °F 69.8 °F 66% 30.06 in 6.2 mi East 15.0 mph - N/A   Mostly Cloudy
1:00 PM 82.4 °F 85.4 °F 68.0 °F 62% 30.04 in 6.2 mi East 16.1 mph - N/A   Scattered Clouds
2:00 PM 81 °F - 68 °F 56% 30.03 in 19 mi East 13.8 mph - -   Mostly Cloudy
2:00 PM 80.6 °F 83.9 °F 69.8 °F 70% 30.01 in 6.2 mi East 15.0 mph - N/A   Mostly Cloudy
3:00 PM 80.6 °F 83.9 °F 69.8 °F 70% 30.01 in 6.2 mi East 12.7 mph - N/A   Scattered Clouds
4:00 PM 80.6 °F 83.2 °F 68.0 °F 65% 29.98 in 6.2 mi East 15.0 mph - N/A   Scattered Clouds
5:00 PM 80 °F - 69 °F 60% 30.01 in 28 mi East 13.8 mph - -   Partly Cloudy
5:00 PM 78.8 °F - 68.0 °F 69% 30.01 in 6.2 mi East 13.8 mph - N/A   Scattered Clouds
6:00 PM 78.8 °F - 68.0 °F 69% 30.01 in 6.2 mi East 12.7 mph - N/A   Partly Cloudy
7:00 PM 78.8 °F - 68.0 °F 69% 30.01 in 6.2 mi East 10.4 mph - N/A   Scattered Clouds
8:00 PM 78 °F - 69 °F 68% 30.05 in 22 mi East 10.4 mph - -   Partly Cloudy
8:00 PM 78.8 °F - 69.8 °F 74% 30.04 in 6.2 mi East 9.2 mph - N/A   Scattered Clouds
9:00 PM 78.8 °F - 69.8 °F 74% 30.04 in 6.2 mi East 8.1 mph - N/A   Mostly Cloudy
10:00 PM 75.2 °F - 71.6 °F 89% 30.04 in 6.2 mi East 5.8 mph - N/A Rain Light Rain Showers
11:00 PM 76 °F - 71 °F 80% 30.05 in 12 mi East 8.1 mph - - Rain Light Rain Showers
11:00 PM 77.0 °F - 71.6 °F 83% 30.04 in 6.2 mi East 6.9 mph - N/A   Scattered Clouds